Weather History for Albany, NY

Change the Weather History Date:

Tuesday, November 20, 2012

  Actual Average Record
Temperature  
Mean Temperature 34 °F 38 °F  
Max Temperature 45 °F 46 °F 72 °F (1991)
Min Temperature 23 °F 31 °F 6 °F (1986)
Degree Days  
Heating Degree Days 31 27  
Month to date heating degree days 508 472  
Since 1 July heating degree days 994 1117  
Cooling Degree Days 0 0  
Month to date cooling degree days 0 0  
Year to date cooling degree days 814 598  
Moisture  
Dew Point 27 °F    
Average Humidity 73    
Maximum Humidity 92    
Minimum Humidity 53    
Precipitation  
Precipitation 0.00 in 0.11 in 1.15 in (1988)
Month to date precipitation 0.83 2.19  
Year to date precipitation 32.90 35.32  
Snow  
Snow 0.00 in 0.10 in 3.40 in (1961)
Month to date snowfall 0.1 1.2  
Since 1 July snowfall 0.1 1.2  
Since 1 September snowfall 0.1 1.2  
Snow Depth 0.00 in    
Sea Level Pressure  
Sea Level Pressure 30.21 in    
Wind  
Wind Speed 1 mph (North)    
Max Wind Speed 7 mph    
Max Gust Speed 9 mph    
Visibility 10 miles    
Events      
T = Trace of Precipitation, MM = Missing Value Source: NWS Daily Summary

Daily Weather History Graph

Daily Weather History Graph

Search for Another Location

Airport:

Trip Planner

Search our weather history database for the weather conditions in past years. The results will help you decide how hot, cold, wet, or windy it might be!

Date:

Astronomy

Nov. 20, 2012 Rise Set
Actual Time 6:53 AM EST 4:27 PM EST
Civil Twilight 6:22 AM EST 4:58 PM EST
Nautical Twilight 5:48 AM EST 5:33 PM EST
Astronomical Twilight 5:14 AM EST 6:06 PM EST
Moon 12:21 PM EST (11/20) No Moon Set
Length of Visible Light 10h 35m
Length of Day
9h 34m
Waxing Crescent, 51% of the Moon is Illuminated
Nov 20
Waxing Crescent
Nov 28
Full
Dec 6
Last Quarter
Dec 13
New
Dec 20
First Quarter

Hourly Weather History & Observations

Time (EST) Temp. Windchill Dew Point Humidity Pressure Visibility Wind Dir Wind Speed Gust Speed Precip Events Conditions
12:51 AM 28.0 °F - 24.1 °F 85% 30.28 in 10.0 mi Calm Calm - N/A   Mostly Cloudy
1:51 AM 27.0 °F - 24.1 °F 89% 30.27 in 10.0 mi Calm Calm - N/A   Mostly Cloudy
2:51 AM 25.0 °F - 21.9 °F 88% 30.26 in 10.0 mi Calm Calm - N/A   Scattered Clouds
3:51 AM 25.0 °F - 23.0 °F 92% 30.25 in 10.0 mi Calm Calm - N/A   Scattered Clouds
4:51 AM 24.1 °F - 21.9 °F 91% 30.25 in 10.0 mi Calm Calm - N/A   Scattered Clouds
5:51 AM 24.1 °F - 21.9 °F 91% 30.25 in 10.0 mi Calm Calm - N/A   Mostly Cloudy
6:51 AM 25.0 °F - 23.0 °F 92% 30.25 in 10.0 mi Calm Calm - N/A   Mostly Cloudy
7:51 AM 28.9 °F - 25.0 °F 85% 30.25 in 10.0 mi Calm Calm - N/A   Overcast
8:51 AM 30.9 °F - 28.0 °F 89% 30.25 in 10.0 mi Calm Calm - N/A   Overcast
9:51 AM 34.0 °F 31.0 °F 28.9 °F 82% 30.24 in 10.0 mi NNW 3.5 mph - N/A   Overcast
10:51 AM 37.9 °F 35.5 °F 28.9 °F 70% 30.23 in 10.0 mi NNW 3.5 mph - N/A   Mostly Cloudy
11:51 AM 41.0 °F 38.0 °F 28.9 °F 62% 30.20 in 10.0 mi NNW 4.6 mph - N/A   Mostly Cloudy
12:51 PM 45.0 °F 42.6 °F 28.9 °F 53% 30.18 in 10.0 mi NNE 4.6 mph - N/A   Mostly Cloudy
1:51 PM 45.0 °F 43.5 °F 28.0 °F 52% 30.17 in 10.0 mi NNE 3.5 mph - N/A   Mostly Cloudy
2:51 PM 45.0 °F 43.5 °F 28.0 °F 52% 30.17 in 10.0 mi NNW 3.5 mph - N/A   Overcast
3:51 PM 43.0 °F - 28.0 °F 56% 30.17 in 10.0 mi Calm Calm - N/A   Mostly Cloudy
4:51 PM 42.1 °F - 28.0 °F 58% 30.17 in 10.0 mi Calm Calm - N/A   Overcast
5:51 PM 36.0 °F - 28.9 °F 76% 30.17 in 10.0 mi Calm Calm - N/A   Mostly Cloudy
6:51 PM 35.1 °F - 28.9 °F 78% 30.17 in 10.0 mi Calm Calm - N/A   Overcast
7:51 PM 35.1 °F - 28.9 °F 78% 30.18 in 10.0 mi Calm Calm - N/A   Overcast
8:51 PM 35.1 °F - 28.9 °F 78% 30.19 in 10.0 mi Calm Calm - N/A   Overcast
9:51 PM 36.0 °F - 28.9 °F 76% 30.19 in 10.0 mi Calm Calm - N/A   Overcast
10:51 PM 36.0 °F - 28.9 °F 76% 30.19 in 10.0 mi Calm Calm - N/A   Overcast
11:51 PM 33.1 °F - 28.9 °F 85% 30.19 in 10.0 mi Calm Calm - N/A   Overcast